When you browse on this site, cookies collect data to enhance your experience and personalize the content and advertising you see.
Visit our Privacy Policy to learn more. By continuing to use the site, you agree to this use of cookies and data.
  • In Romania
  • List of Countries
  • For 7 days
  • Water Temperature
  • Weather Map
  • Weather Widgets
  • user-avatar
    Login

    Hourly Weather Saint-Laurent-du-Var

    Today, 24 August, Saturday

    Time Temperature Precipitation Wind Pressure Humidity
    00:00 +24°C° 0 mm 2 mps 760 mmHg 75%
    01:00 +24°C° 0 mm 2 mps 760 mmHg 75%
    02:00 +24°C° 0 mm 2 mps 760 mmHg 74%
    03:00 +24°C° 0 mm 2 mps 760 mmHg 74%
    04:00 +24°C° 0 mm 2 mps 760 mmHg 72%
    05:00 +24°C° 0 mm 2 mps 760 mmHg 71%
    06:00 +25°C° 0 mm 2 mps 760 mmHg 68%
    07:00 +27°C° 0 mm 1 mps 760 mmHg 60%
    08:00 +29°C° 0 mm 1 mps 760 mmHg 52%
    09:00 +31°C° 0 mm 1 mps 760 mmHg 45%
    10:00 +32°C° 0 mm 1 mps 760 mmHg 45%
    11:00 +32°C° 0 mm 2 mps 759 mmHg 45%
    12:00 +32°C° 0 mm 2 mps 760 mmHg 44%
    13:00 +32°C° 0.2 mm 2 mps 759 mmHg 48%
    14:00 +31°C° 0.2 mm 2 mps 759 mmHg 51%
    15:00 +31°C° 0.2 mm 2 mps 759 mmHg 54%
    16:00 +30°C° 0.1 mm 2 mps 758 mmHg 58%
    17:00 +29°C° 0.1 mm 2 mps 758 mmHg 63%
    18:00 +28°C° 0.1 mm 2 mps 758 mmHg 67%
    19:00 +27°C° 0 mm 1 mps 758 mmHg 68%
    20:00 +26°C° 0 mm 1 mps 758 mmHg 68%
    21:00 +26°C° 0 mm 1 mps 759 mmHg 69%
    22:00 +26°C° 0 mm 1 mps 759 mmHg 69%
    23:00 +25°C° 0 mm 2 mps 759 mmHg 69%

    Tomorrow, 25 August, Sunday

    Time Temperature Precipitation Wind Pressure Humidity
    00:00 +25°C° 0 mm 2 mps 759 mmHg 69%
    01:00 +25°C° 0 mm 2 mps 759 mmHg 69%
    02:00 +25°C° 0 mm 2 mps 759 mmHg 69%
    03:00 +25°C° 0 mm 1 mps 758 mmHg 69%
    04:00 +25°C° 0 mm 2 mps 758 mmHg 68%
    05:00 +25°C° 0 mm 2 mps 758 mmHg 67%
    06:00 +26°C° 0 mm 2 mps 758 mmHg 66%
    07:00 +27°C° 0 mm 2 mps 758 mmHg 60%
    08:00 +29°C° 0 mm 2 mps 759 mmHg 54%
    09:00 +31°C° 0 mm 2 mps 759 mmHg 48%
    10:00 +32°C° 0.1 mm 2 mps 759 mmHg 49%
    11:00 +32°C° 0.1 mm 2 mps 759 mmHg 50%
    12:00 +32°C° 0.1 mm 2 mps 759 mmHg 51%
    13:00 +32°C° 0.5 mm 2 mps 758 mmHg 52%
    14:00 +32°C° 0.5 mm 2 mps 758 mmHg 54%
    15:00 +32°C° 0.5 mm 1 mps 758 mmHg 55%
    16:00 +30°C° 0.2 mm 1 mps 758 mmHg 60%
    17:00 +29°C° 0.2 mm 1 mps 757 mmHg 64%
    18:00 +28°C° 0.2 mm 1 mps 757 mmHg 69%
    19:00 +27°C° 0 mm 1 mps 758 mmHg 70%
    20:00 +27°C° 0 mm 1 mps 758 mmHg 70%
    21:00 +26°C° 0 mm 1 mps 759 mmHg 71%
    22:00 +26°C° 0 mm 1 mps 758 mmHg 71%
    23:00 +26°C° 0 mm 1 mps 758 mmHg 71%

    Day after tomorrow, 26 August, Monday

    Time Temperature Precipitation Wind Pressure Humidity
    00:00 +25°C° 0 mm 2 mps 758 mmHg 70%
    01:00 +25°C° 0 mm 1 mps 758 mmHg 70%
    02:00 +25°C° 0 mm 1 mps 758 mmHg 70%
    03:00 +25°C° 0 mm 1 mps 758 mmHg 69%
    04:00 +25°C° 0 mm 1 mps 758 mmHg 68%
    05:00 +26°C° 0 mm 1 mps 758 mmHg 67%
    06:00 +26°C° 0 mm 1 mps 758 mmHg 66%
    07:00 +28°C° 0 mm 1 mps 758 mmHg 60%
    08:00 +30°C° 0 mm 1 mps 758 mmHg 54%
    09:00 +32°C° 0 mm 1 mps 758 mmHg 49%
    10:00 +32°C° 0.1 mm 1 mps 758 mmHg 47%
    11:00 +34°C° 0.1 mm 2 mps 758 mmHg 46%
    12:00 +34°C° 0.1 mm 2 mps 758 mmHg 44%
    13:00 +34°C° 0.2 mm 2 mps 758 mmHg 46%
    14:00 +32°C° 0.2 mm 2 mps 758 mmHg 47%
    15:00 +32°C° 0.2 mm 2 mps 758 mmHg 48%
    16:00 +31°C° 0 mm 2 mps 757 mmHg 53%
    17:00 +29°C° 0 mm 2 mps 757 mmHg 57%
    18:00 +28°C° 0 mm 2 mps 757 mmHg 61%
    19:00 +28°C° 0 mm 2 mps 758 mmHg 62%
    20:00 +27°C° 0 mm 2 mps 758 mmHg 64%
    21:00 +26°C° 0 mm 2 mps 758 mmHg 65%
    22:00 +26°C° 0 mm 2 mps 758 mmHg 65%
    23:00 +26°C° 0 mm 2 mps 758 mmHg 66%

    27 August, Tuesday

    Time Temperature Precipitation Wind Pressure Humidity
    00:00 +26°C° 0 mm 2 mps 758 mmHg 66%
    01:00 +26°C° 0 mm 1 mps 758 mmHg 66%
    02:00 +26°C° 0 mm 1 mps 758 mmHg 66%
    03:00 +25°C° 0 mm 1 mps 758 mmHg 66%
    04:00 +26°C° 0 mm 1 mps 758 mmHg 66%
    05:00 +26°C° 0 mm 1 mps 758 mmHg 65%
    06:00 +26°C° 0 mm 1 mps 758 mmHg 65%
    07:00 +28°C° 0 mm 1 mps 758 mmHg 59%
    08:00 +30°C° 0 mm 1 mps 759 mmHg 53%
    09:00 +32°C° 0 mm 1 mps 759 mmHg 47%
    10:00 +32°C° 0 mm 2 mps 759 mmHg 46%
    11:00 +32°C° 0 mm 2 mps 759 mmHg 44%
    12:00 +34°C° 0 mm 2 mps 759 mmHg 43%
    13:00 +32°C° 0 mm 2 mps 758 mmHg 43%
    14:00 +32°C° 0 mm 2 mps 758 mmHg 44%
    15:00 +32°C° 0 mm 2 mps 758 mmHg 44%
    16:00 +31°C° 0 mm 2 mps 758 mmHg 49%
    17:00 +29°C° 0 mm 2 mps 757 mmHg 55%
    18:00 +28°C° 0 mm 1 mps 757 mmHg 60%
    19:00 +28°C° 0 mm 1 mps 758 mmHg 61%
    20:00 +27°C° 0 mm 1 mps 758 mmHg 62%
    21:00 +27°C° 0 mm 1 mps 758 mmHg 63%
    22:00 +27°C° 0 mm 1 mps 758 mmHg 63%
    23:00 +27°C° 0 mm 1 mps 758 mmHg 63%

    28 August, Wednesday

    Time Temperature Precipitation Wind Pressure Humidity
    00:00 +26°C° 0 mm 1 mps 757 mmHg 63%
    01:00 +26°C° 0 mm 1 mps 757 mmHg 63%
    02:00 +26°C° 0 mm 1 mps 757 mmHg 64%
    03:00 +25°C° 0 mm 1 mps 757 mmHg 65%
    04:00 +25°C° 0 mm 1 mps 757 mmHg 65%
    05:00 +26°C° 0 mm 1 mps 757 mmHg 65%
    06:00 +26°C° 0 mm 1 mps 757 mmHg 65%
    07:00 +28°C° 0 mm 1 mps 757 mmHg 59%
    08:00 +29°C° 0 mm 1 mps 757 mmHg 53%
    09:00 +31°C° 0 mm 2 mps 757 mmHg 47%
    10:00 +31°C° 0.1 mm 2 mps 757 mmHg 46%
    11:00 +32°C° 0.1 mm 2 mps 757 mmHg 45%
    12:00 +32°C° 0.1 mm 2 mps 756 mmHg 43%
    13:00 +32°C° 0.2 mm 2 mps 756 mmHg 47%
    14:00 +31°C° 0.2 mm 2 mps 756 mmHg 50%
    15:00 +31°C° 0.2 mm 1 mps 756 mmHg 53%
    16:00 +29°C° 0.2 mm 1 mps 756 mmHg 58%
    17:00 +28°C° 0.2 mm 1 mps 756 mmHg 64%
    18:00 +25°C° 0.2 mm 0 mps 756 mmHg 69%
    19:00 +26°C° 0 mm 1 mps 756 mmHg 70%
    20:00 +26°C° 0 mm 1 mps 756 mmHg 70%
    21:00 +25°C° 0 mm 1 mps 756 mmHg 71%
    22:00 +25°C° 0 mm 1 mps 756 mmHg 70%
    23:00 +25°C° 0 mm 1 mps 756 mmHg 70%

    29 August, Thursday

    Time Temperature Precipitation Wind Pressure Humidity
    00:00 +25°C° 0 mm 1 mps 756 mmHg 69%
    01:00 +24°C° 0 mm 1 mps 756 mmHg 69%
    02:00 +24°C° 0 mm 1 mps 756 mmHg 69%
    03:00 +24°C° 0 mm 1 mps 756 mmHg 68%
    04:00 +24°C° 0 mm 1 mps 756 mmHg 68%
    05:00 +25°C° 0 mm 1 mps 756 mmHg 67%
    06:00 +25°C° 0 mm 1 mps 756 mmHg 67%
    07:00 +27°C° 0 mm 1 mps 756 mmHg 60%
    08:00 +29°C° 0 mm 1 mps 757 mmHg 54%
    09:00 +31°C° 0 mm 1 mps 757 mmHg 47%
    10:00 +31°C° 0.1 mm 2 mps 756 mmHg 48%
    11:00 +32°C° 0.1 mm 2 mps 756 mmHg 49%
    12:00 +32°C° 0.1 mm 2 mps 756 mmHg 49%
    13:00 +31°C° 0.4 mm 2 mps 756 mmHg 52%
    14:00 +31°C° 0.4 mm 2 mps 756 mmHg 55%
    15:00 +31°C° 0.4 mm 2 mps 755 mmHg 58%
    16:00 +29°C° 0.6 mm 2 mps 756 mmHg 63%
    17:00 +28°C° 0.6 mm 1 mps 756 mmHg 68%
    18:00 +27°C° 0.6 mm 1 mps 756 mmHg 73%
    19:00 +26°C° 0.1 mm 1 mps 756 mmHg 74%
    20:00 +26°C° 0.1 mm 1 mps 756 mmHg 74%
    21:00 +26°C° 0.1 mm 1 mps 757 mmHg 75%
    22:00 +25°C° 0 mm 1 mps 757 mmHg 74%
    23:00 +25°C° 0 mm 1 mps 756 mmHg 73%
    Show more